Regional Weather Roundup
Issued by NWS

Home | Current Version | Previous Version | Text Only | Print | Product List | Glossary On
Versions: 1 2 3 4 5 6 7 8 9 10 11 12 13 14 15 16 17 18 19 20 21 22 23 24 25 26 27 28 29 30 31 32 33 34 35 36 37 38 39 40 41 42 43 44 45 46 47 48 49 50
588
ASUS45 KSLC 121510
RWRUT

UTAH REGIONAL WEATHER ROUNDUP
NATIONAL WEATHER SERVICE SALT LAKE CITY UT
800 AM MST FRI FEB 12 2016

UTZ001>011-023>025-121600-

NORTHERN UTAH

CITY           SKY/WX    TMP DP  RH WIND       PRES   REMARKS
BRIGHAM CITY   CLOUDY    25  23  92 CALM      30.46R VSB 1/4
HILL AFB       FOG       25  22  88 CALM      30.43R VSB 1
LOGAN          FOG       20  19  96 CALM      30.44R VSB 1/4
OGDEN          FOG       25  25 100 NW5       30.44R VSB<1/4 WCI  19
PROVO AIRPORT  FOG       19  16  86 CALM      30.44R VSB 1/4
SALT LAKE CITY FOG       29  27  92 CALM      30.44R VSB 1
VERNAL         CLOUDY    16  13  88 W3        30.46R FOG
WENDOVER       CLOUDY    28  25  86 CALM      30.44R
HEBER CITY     PTCLDY     9   7  92 CALM      30.40S FOG
WEST JORDAN    CLOUDY    27  27 100 CALM      30.43S

$$

UTZ012>022-026-027-121600-

SOUTHERN/CENTRAL UTAH

CITY           SKY/WX    TMP DP  RH WIND       PRES   REMARKS
BLANDING       PTCLDY    32  22  67 CALM      30.50R
BRYCE CANYON   PTCLDY    18   8  65 W12       30.45R WCI   5
CEDAR CITY     PTCLDY    18  15  88 CALM      30.36R
DELTA          CLOUDY    12  10  92 CALM      30.43S VSB<1/4
HANKSVILLE     PTCLDY    28  27  93 CALM      30.47R
MILFORD        FOG        3   1  91 S3        30.41R VSB 1/4
MOAB/CYNLANDS  PTCLDY    28  26  92 CALM      30.43R
PRICE          CLEAR     27  19  72 N3        30.42R
ST GEORGE      MOSUNNY   36  23  60 CALM      30.36S

$$

REGIONAL REPORTS     COLORADO/ARIZONA

CITY           SKY/WX    TMP DP  RH WIND       PRES   REMARKS
CRAIG, CO      CLOUDY     8   3  80 CALM      30.44R
GRAND JUNCTION CLOUDY    25  22  88 SE5       30.45R WCI  19
RIFLE          CLOUDY    16  11  80 SE6       30.48R WCI   7
MONTROSE       CLOUDY    25  17  72 S8        30.48R WCI  16
CORTEZ         CLOUDY    23  17  78 E5        30.44R WCI  17
PAGE, AZ       CLEAR     36  29  75 CALM      30.41R
GRAND CANYON   PTCLDY    23  18  81 NE5       30.41R WCI  17
KINGMAN        PTCLDY    33  23  66 CALM      30.26R
FLAGSTAFF      CLEAR     23  18  81 CALM      30.42S

$$

REGIONAL REPORTS    NEVADA/IDAHO/WYOMING

CITY           SKY/WX    TMP DP  RH WIND       PRES   REMARKS
LAS VEGAS, NV  PTCLDY    48  20  32 SW3       30.22R
ELY            MOCLDY    16   8  71 S18       30.38S WCI   0
ELKO           CLOUDY     8   5  87 E7        30.41R WCI  -3
POCATELLO, ID  CLOUDY    25  20  81 SE5       30.36S WCI  19
BURLEY         CLEAR     26  23  88 CALM      30.31R
EVANSTON, WY   CLOUDY    32  14  47 SE6       30.38R WCI  26
ROCK SPRINGS   CLOUDY    31  17  56 SW7       30.38R WCI  24

$$




USA.gov is the U.S. government's official web portal to all federal, state and local government web resources and services.